Аэропорт
Магадан (UHMM)

 UHMM / GDX
ЗЦ Хабаровск
Магадан (UHMM)
Магадан (UHMM)
 59.91100, 150.72000  / 574 ft

 UHMM 220600Z 09003MPS 9999 SCT040 M02/M05 Q1024 R10/91//60 NOSIG RMK QFE753 R28/09001MPS
 TAF UHMM 220150Z 2203/2309 10003G08MPS 9999 NSC
UHMM_AIP_1910
показать схемы
Название сценария Тип сценария Flight Simulator 9 Flight Simulator X Prepar3D v2 Prepar3D v3 Prepar3D v4 Prepar3D v5 xPlane
"Welcome to Kolyma" UHMM for P3Dv4 by Shestenko Sergey Vladimirovich платный
uhmm-scenery-fs9-0811 бесплатный
UHMM_FSX_1.01 Andrew Bolowin бесплатный

 

Международный аэропорт Магадан (Сокол) имени В.С. Высоцкого (IATA: GDX, ICAO: UHMM) — аэропорт федерального значения, расположен близ посёлка Сокол, к северу от города Магадана на 50 км основной Колымской трассы. Обеспечивает регулярное авиасообщение Магаданской области с аэропортами Дальнего Востока России (включая Чукотский автономный округ), Сибирью и Москвой.

        ВПП — ИВПП 10/28

  • Класс ВПП — А
  • Размеры — 3452 х 59,5
  • Порог 1 N59.91182° E150.68957°
  • Порог 2 N59.91015° E150.75137°
  • PCN — 64/R/B/X/T
  • Магн. курс посадки — 104/284
  • Покрытие — бетон, асфальтобетон
  • ССО — ВПП-10: ОВИ Д-4, ВПП-28: ОМИ


2020 © VATRUS division (Privacy Policy)